User: anonymous   Login
Location: ????????
(54.9045°N, 39.1041°E)
Time: 04:45:53
(UTC+00:00)
Language:

NOSS 7 (E) - Orbit

View from above orbital plane
View from above orbital plane
View from above satellite
View from above satellite

Ground track
Ground track

The orbit data is extracted from the following two-line orbital elements,

1 16624U 86014E   24164.73396372  .00011001  00000-0  92370-3 0  9992
2 16624  63.3001 308.8489 0870149 102.5935 267.3730 13.60240397248533
Epoch (UTC): 12 June 2024 17:36:54
Eccentricity: 0.0870149
inclination: 63.3001°
perigee height: 390 km
apogee height: 1680 km
right ascension of ascending node: 308.8489°
argument of perigee: 102.5935°
revolutions per day: 13.60240397
mean anomaly at epoch: 267.3730°
orbit number at epoch: 24853

The dashed part of the orbit path shows where the satellite is in the earth's shadow,  

DLR